Location: Rometta
(44.2000°N, 10.0500°E)
Time: 11:52:11
(UTC+00:00)

Cosmos 1300 - Pass Details

Date: 20 January 2021
Orbit: 511 x 513 km, 82.5° (Epoch: 06 March)

Event Time Altitude Azimuth Distance (km) Brightness Sun altitude
Rises 17:25:37 0° 344° (NNW) 2,639 6.3 -12.8°
Reaches altitude 10° 17:27:50 10° 336° (NNW) 1,747 5.5 -13.2°
Maximum altitude 17:31:25 39° 267° (W) 783 4.2 -13.8°
Drops below altitude 10° 17:34:58 10° 198° (SSW) 1,732 5.8 -14.5°
Sets 17:37:10 0° 191° (S) 2,613 6.6 -14.8°
